This is the latest recevied weather packets stored in our database for station/object N1SU-13. If no packets are shown the sender has not sent any weather packets the latest 10 day(s).
| Time | Temp. | Humidity | Pressure | Rain* | Wind** | Luminosity | Snow |
|---|---|---|---|---|---|---|---|
| 1788202354 | 17.22° C | 68% | 1010.7 hPa | - | - | - | - |
| 1788201682 | 17.22° C | 68% | 1010.9 hPa | - | - | - | - |
| 1788200992 | 16.67° C | 69% | 1010.9 hPa | - | - | - | - |
| 1788200312 | 16.11° C | 68% | 1011.2 hPa | - | - | - | - |
| 1788199599 | 16.11° C | 70% | 1011.3 hPa | - | - | - | - |
| 1788198954 | 15.56° C | 73% | 1011.5 hPa | - | - | - | - |
| 1788198306 | 15° C | 76% | 1011.6 hPa | - | - | - | - |
| 1788197703 | 15° C | 76% | 1011.6 hPa | - | - | - | - |
| 1788197067 | 14.44° C | 76% | 1011.9 hPa | - | - | - | - |
| 1788196463 | 13.89° C | 79% | 1011.9 hPa | - | - | - | - |
| 1788195809 | 13.33° C | 82% | 1012 hPa | - | - | - | - |
| 1788195139 | 12.78° C | 84% | 1012.2 hPa | - | - | - | - |
| 1788194528 | 12.78° C | 86% | 1012.3 hPa | - | - | - | - |
| 1788193881 | 12.22° C | 87% | 1012.6 hPa | - | - | - | - |
| 1788193278 | 11.67° C | 89% | 1012.7 hPa | - | - | - | - |
| 1788192659 | 11.67° C | 90% | 1012.8 hPa | - | - | - | - |
| 1788192036 | 11.11° C | 92% | 1012.9 hPa | - | - | - | - |
| 1788191456 | 11.11° C | 93% | 1012.8 hPa | - | - | - | - |
| 1788190789 | 10.56° C | 94% | 1013 hPa | - | - | - | - |
| 1788190157 | 10.56° C | 94% | 1013.1 hPa | - | - | - | - |
| 1788189464 | 10.56° C | 94% | 1013.2 hPa | - | - | - | - |
| 1788188813 | 10° C | 92% | 1013.1 hPa | - | - | - | - |
| 1788188169 | 10° C | 92% | 1013 hPa | - | - | - | - |
| 1788187551 | 10° C | 92% | 1013 hPa | - | - | - | - |
| 1788186886 | 10° C | 92% | 1013.1 hPa | - | - | - | - |
* Rain since midnight (hover to see other rain measurements)
** Current wind speed in m/s (hover to see current wind gust speed)